| time (UTC) | temp F | wind direction | speed MPH | gust MPH | rain 1hr in | rain 24hr in | rain mn in | humidity % | barometer mb |
| 20260502190539 | 65 | 225 | 3.0 | 10.0 | 0.00 | 0.00 | 0.00 | 88 | 1017.9 |
| 20260502185519 | 66 | 225 | 3.0 | 7.0 | 0.00 | 0.00 | 0.00 | 88 | 1018.0 |
| 20260502184519 | 66 | 113 | 2.0 | 7.0 | 0.00 | 0.00 | 0.00 | 89 | 1018.2 |
| 20260502183519 | 66 | 225 | 3.0 | 9.0 | 0.00 | 0.00 | 0.00 | 89 | 1018.0 |
| 20260502182519 | 65 | 90 | 2.0 | 7.0 | 0.00 | 0.00 | 0.00 | 89 | 1018.3 |
| 20260502181518 | 66 | 90 | 3.0 | 10.0 | 0.00 | 0.00 | 0.00 | 89 | 1018.2 |
| 20260502180539 | 66 | 90 | 3.0 | 9.0 | 0.00 | 0.00 | 0.00 | 89 | 1018.3 |
| 20260502170518 | 66 | 68 | 4.0 | 11.0 | 0.00 | 0.00 | 0.00 | 87 | 1018.5 |
| 20260502163519 | 67 | 135 | 2.0 | 7.0 | 0.00 | 0.00 | 0.00 | 86 | 1019.0 |
| 20260502162519 | 67 | 90 | 4.0 | 8.0 | 0.00 | 0.00 | 0.00 | 85 | 1019.0 |
| 20260502161539 | 68 | 135 | 3.0 | 8.0 | 0.00 | 0.00 | 0.00 | 84 | 1019.3 |
| 20260502160539 | 68 | 293 | 2.0 | 7.0 | 0.00 | 0.00 | 0.00 | 84 | 1019.4 |
| 20260502151519 | 70 | 225 | 2.0 | 5.0 | 0.00 | 0.00 | 0.00 | 82 | 1019.7 |
| 20260502150518 | 69 | 90 | 3.0 | 6.0 | 0.00 | 0.00 | 0.00 | 81 | 1019.9 |
| 20260502130519 | 69 | 225 | 4.0 | 12.0 | 0.00 | 0.00 | 0.00 | 85 | 1020.6 |
| 20260502123519 | 69 | 90 | 4.0 | 9.0 | 0.00 | 0.00 | 0.00 | 84 | 1021.4 |
| 20260502122519 | 69 | 90 | 4.0 | 11.0 | 0.00 | 0.00 | 0.00 | 84 | 1021.4 |
| 20260502121519 | 69 | 135 | 3.0 | 7.0 | 0.00 | 0.00 | 0.00 | 84 | 1021.5 |
| 20260502120519 | 69 | 90 | 4.0 | 10.0 | 0.00 | 0.00 | 0.00 | 83 | 1021.5 |
| 20260502115519 | 69 | 113 | 4.0 | 8.0 | 0.00 | 0.00 | 0.00 | 83 | 1021.5 |
| 20260502114519 | 70 | 113 | 4.0 | 11.0 | 0.00 | 0.00 | 0.00 | 82 | 1021.5 |
| 20260502113537 | 69 | 90 | 4.0 | 9.0 | 0.00 | 0.00 | 0.00 | 83 | 1021.6 |
| 20260502112519 | 69 | 45 | 4.0 | 9.0 | 0.00 | 0.00 | 0.00 | 84 | 1021.6 |
| 20260502111519 | 69 | 158 | 3.0 | 7.0 | 0.00 | 0.00 | 0.00 | 84 | 1021.8 |
| 20260502110519 | 69 | 135 | 3.0 | 9.0 | 0.00 | 0.00 | 0.00 | 84 | 1021.9 |
| 20260502105519 | 69 | 90 | 5.0 | 10.0 | 0.00 | 0.00 | 0.00 | 84 | 1022.0 |
| 20260502104519 | 69 | 45 | 5.0 | 11.0 | 0.00 | 0.00 | 0.00 | 84 | 1022.1 |
| 20260502103519 | 69 | 113 | 5.0 | 11.0 | 0.00 | 0.00 | 0.00 | 83 | 1022.1 |
| 20260502102517 | 69 | 113 | 5.0 | 11.0 | 0.00 | 0.00 | 0.00 | 83 | 1022.1 |
| 20260502101519 | 69 | 90 | 5.0 | 11.0 | 0.00 | 0.00 | 0.00 | 82 | 1022.1 |
| 20260502100519 | 69 | 68 | 5.0 | 13.0 | 0.00 | 0.00 | 0.00 | 83 | 1022.0 |
| 20260502091519 | 69 | 113 | 4.0 | 9.0 | 0.00 | 0.00 | 0.00 | 79 | 1022.2 |
| 20260502090519 | 70 | 113 | 3.0 | 7.0 | 0.00 | 0.00 | 0.00 | 79 | 1022.3 |
| 20260502071519 | 68 | 0.0 | 1.0 | 0.00 | 0.00 | 0.00 | 79 | 1022.3 | |
| 20260502070519 | 68 | 0.0 | 2.0 | 0.00 | 0.00 | 0.00 | 80 | 1022.2 | |
| 20260502065519 | 67 | 0.0 | 2.0 | 0.00 | 0.00 | 0.00 | 81 | 1022.2 | |
| 20260502064539 | 67 | 0.0 | 1.0 | 0.00 | 0.00 | 0.00 | 81 | 1022.2 | |
| 20260502063519 | 67 | 0.0 | 0.0 | 0.00 | 0.00 | 0.00 | 82 | 1022.3 | |
| 20260502062519 | 66 | 0.0 | 0.0 | 0.00 | 0.00 | 0.00 | 82 | 1022.3 | |
| 20260502061519 | 66 | 0.0 | 0.0 | 0.00 | 0.00 | 0.00 | 82 | 1022.3 | |
| 20260502060519 | 65 | 0.0 | 0.0 | 0.00 | 0.00 | 0.00 | 82 | 1022.3 | |
| 20260502055519 | 65 | 0.0 | 0.0 | 0.00 | 0.00 | 0.00 | 82 | 1022.2 | |
| 20260502054519 | 65 | 0.0 | 0.0 | 0.00 | 0.00 | 0.00 | 82 | 1022.3 | |
| 20260502053519 | 64 | 0.0 | 0.0 | 0.00 | 0.00 | 0.00 | 82 | 1022.2 | |
| 20260502052519 | 64 | 0.0 | 0.0 | 0.00 | 0.00 | 0.00 | 83 | 1022.0 | |
| 20260502051519 | 64 | 0.0 | 0.0 | 0.00 | 0.00 | 0.00 | 83 | 1021.8 | |
| 20260502050519 | 64 | 0.0 | 0.0 | 0.00 | 0.00 | 0.00 | 83 | 1021.7 | |
| 20260502045519 | 64 | 0.0 | 0.0 | 0.00 | 0.00 | 0.00 | 83 | 1021.7 | |
| 20260502044539 | 64 | 0.0 | 0.0 | 0.00 | 0.00 | 0.00 | 83 | 1021.7 | |
| 20260502043519 | 64 | 0.0 | 0.0 | 0.00 | 0.00 | 0.00 | 83 | 1021.7 | |
| 20260502042519 | 64 | 0.0 | 0.0 | 0.00 | 0.00 | 0.00 | 83 | 1021.8 | |
| 20260502041519 | 65 | 0.0 | 0.0 | 0.00 | 0.00 | 0.00 | 83 | 1021.9 | |
| 20260502040519 | 64 | 0.0 | 0.0 | 0.00 | 0.00 | 0.00 | 83 | 1022.0 | |
| 20260502035539 | 64 | 0.0 | 1.0 | 0.00 | 0.00 | 0.00 | 84 | 1022.0 | |
| 20260502034519 | 64 | 270 | 2.0 | 4.0 | 0.00 | 0.00 | 0.00 | 86 | 1022.2 |
| 20260502033539 | 64 | 225 | 1.0 | 4.0 | 0.00 | 0.00 | 0.00 | 87 | 1022.2 |
| 20260502032519 | 64 | 0.0 | 2.0 | 0.00 | 0.00 | 0.00 | 87 | 1022.1 | |
| 20260502031520 | 63 | 0.0 | 1.0 | 0.00 | 0.00 | 0.00 | 86 | 1022.1 | |
| 20260502030519 | 63 | 0.0 | 0.0 | 0.00 | 0.00 | 0.00 | 87 | 1022.2 | |
| 20260502025519 | 63 | 0.0 | 2.0 | 0.00 | 0.00 | 0.00 | 88 | 1022.1 | |
| 20260502024517 | 63 | 45 | 1.0 | 2.0 | 0.00 | 0.00 | 0.00 | 87 | 1022.1 |
| 20260502023519 | 63 | 45 | 1.0 | 2.0 | 0.00 | 0.00 | 0.00 | 88 | 1022.0 |
| 20260502022519 | 63 | 45 | 1.0 | 2.0 | 0.00 | 0.00 | 0.00 | 88 | 1022.2 |
| 20260502021539 | 63 | 45 | 1.0 | 2.0 | 0.00 | 0.00 | 0.00 | 88 | 1022.3 |
| 20260502020519 | 63 | 0.0 | 1.0 | 0.00 | 0.00 | 0.00 | 86 | 1022.3 | |
| 20260502015539 | 63 | 45 | 1.0 | 3.0 | 0.00 | 0.00 | 0.00 | 85 | 1022.3 |
| 20260502014519 | 64 | 0.0 | 0.0 | 0.00 | 0.00 | 0.00 | 85 | 1022.4 | |
| 20260502013524 | 64 | 0.0 | 0.0 | 0.00 | 0.00 | 0.00 | 85 | 1022.5 | |
| 20260502012519 | 63 | 293 | 1.0 | 3.0 | 0.00 | 0.00 | 0.00 | 86 | 1022.6 |
| 20260502011519 | 63 | 293 | 1.0 | 3.0 | 0.00 | 0.00 | 0.00 | 88 | 1022.7 |
| 20260502010519 | 63 | 293 | 1.0 | 4.0 | 0.00 | 0.00 | 0.00 | 89 | 1022.8 |
| 20260502005519 | 62 | 293 | 3.0 | 6.0 | 0.00 | 0.00 | 0.00 | 89 | 1022.8 |
| 20260502004519 | 62 | 270 | 2.0 | 3.0 | 0.00 | 0.00 | 0.00 | 90 | 1022.9 |
| 20260502003519 | 62 | 270 | 2.0 | 5.0 | 0.00 | 0.00 | 0.00 | 90 | 1023.0 |
| 20260502002519 | 63 | 293 | 2.0 | 3.0 | 0.00 | 0.00 | 0.00 | 90 | 1023.1 |
| 20260502001519 | 62 | 270 | 2.0 | 3.0 | 0.00 | 0.00 | 0.00 | 90 | 1023.3 |
| 20260502000519 | 62 | 270 | 2.0 | 3.0 | 0.00 | 0.00 | 0.00 | 90 | 1023.4 |
| 20260501235519 | 62 | 270 | 1.0 | 3.0 | 0.00 | 0.00 | 0.00 | 90 | 1023.4 |
| 20260501234519 | 63 | 248 | 1.0 | 2.0 | 0.00 | 0.00 | 0.00 | 89 | 1023.5 |
| 20260501233517 | 63 | 0.0 | 2.0 | 0.00 | 0.00 | 0.00 | 89 | 1023.5 | |
| 20260501232519 | 63 | 293 | 1.0 | 2.0 | 0.00 | 0.00 | 0.00 | 89 | 1023.6 |
| 20260501231519 | 63 | 293 | 1.0 | 1.0 | 0.00 | 0.00 | 0.00 | 90 | 1023.6 |
| 20260501230517 | 63 | 0.0 | 0.0 | 0.00 | 0.00 | 0.00 | 89 | 1023.5 | |
| 20260501225519 | 63 | 0.0 | 1.0 | 0.00 | 0.00 | 0.00 | 88 | 1023.5 | |
| 20260501224539 | 64 | 0.0 | 1.0 | 0.00 | 0.00 | 0.00 | 88 | 1023.5 | |
| 20260501223539 | 64 | 0.0 | 0.0 | 0.00 | 0.00 | 0.00 | 88 | 1023.6 | |
| 20260501222519 | 64 | 0.0 | 0.0 | 0.00 | 0.00 | 0.00 | 88 | 1023.6 | |
| 20260501221519 | 65 | 0.0 | 1.0 | 0.00 | 0.00 | 0.00 | 87 | 1023.5 | |
| 20260501220519 | 65 | 0.0 | 0.0 | 0.00 | 0.00 | 0.00 | 88 | 1023.6 | |
| 20260501215519 | 65 | 0.0 | 0.0 | 0.00 | 0.00 | 0.00 | 88 | 1023.6 | |
| 20260501214519 | 65 | 0.0 | 0.0 | 0.00 | 0.00 | 0.00 | 88 | 1023.8 | |
| 20260501213519 | 65 | 0.0 | 1.0 | 0.00 | 0.00 | 0.00 | 88 | 1023.7 | |
| 20260501212519 | 65 | 0.0 | 0.0 | 0.00 | 0.00 | 0.00 | 88 | 1023.7 | |
| 20260501211517 | 64 | 0.0 | 0.0 | 0.00 | 0.00 | 0.00 | 88 | 1023.5 | |
| 20260501210519 | 65 | 270 | 1.0 | 2.0 | 0.00 | 0.00 | 0.00 | 87 | 1023.6 |
| 20260501205519 | 65 | 270 | 1.0 | 3.0 | 0.00 | 0.00 | 0.00 | 87 | 1023.6 |
| 20260501204519 | 65 | 0.0 | 2.0 | 0.00 | 0.00 | 0.00 | 87 | 1023.6 | |
| 20260501203519 | 65 | 270 | 1.0 | 3.0 | 0.00 | 0.00 | 0.00 | 87 | 1023.6 |
| 20260501202519 | 66 | 270 | 1.0 | 2.0 | 0.00 | 0.00 | 0.00 | 86 | 1023.4 |
| 20260501201519 | 66 | 0.0 | 1.0 | 0.00 | 0.00 | 0.00 | 86 | 1023.3 | |
| 20260501200519 | 66 | 0.0 | 2.0 | 0.00 | 0.00 | 0.00 | 85 | 1023.1 | |
| 20260501195519 | 66 | 0.0 | 1.0 | 0.00 | 0.00 | 0.00 | 85 | 1023.0 | |
| 20260501194517 | 66 | 90 | 1.0 | 4.0 | 0.00 | 0.00 | 0.00 | 85 | 1022.9 |
| 20260501193519 | 66 | 68 | 1.0 | 6.0 | 0.00 | 0.00 | 0.00 | 85 | 1022.8 |
| 20260501192538 | 66 | 68 | 1.0 | 5.0 | 0.00 | 0.00 | 0.00 | 85 | 1022.7 |
| 20260501191517 | 67 | 68 | 1.0 | 7.0 | 0.00 | 0.00 | 0.00 | 85 | 1022.5 |